Location: Newark
(52.4787°S, 179.0532°W)
Time: 12:59:21
(UTC+00:00)

Transit 2A Rocket - Pass Details

Date: 22 November 2019
Orbit: 594 x 909 km, 66.7° (Epoch: 07 December)

Event Time Altitude Azimuth Distance (km) Brightness Sun altitude
Rises 19:35:19 0° 11° (N) 3,325 8.5 33.0°
Reaches altitude 10° 19:38:12 10° 26° (NNE) 2,454 8.2 33.4°
Maximum altitude 19:42:24 21° 73° (ENE) 1,846 9.1 34.0°
Drops below altitude 10° 19:46:47 10° 120° (ESE) 2,588 8.5 34.7°
Sets 19:49:55 0° 134° (SE) 3,559 8.8 35.2°
